Iowa City, IA

3:23 AM CDT on April 21, 2018 (GMT -0500)
Iowa City Municipal

Weather History for KIOW - June, 2013

Change the Weather History Date:

Thursday, June 13, 2013

  Actual Average Record
Temperature  
Mean Temperature 74 °F 71 °F  
Max Temperature 83 °F 81 °F 97 °F (1987)
Min Temperature 65 °F 61 °F 45 °F (1955)
Degree Days  
Heating Degree Days 0 0  
Month to date heating degree days 21 14  
Since 1 June heating degree days 21 14  
Since 1 July heating degree days 6449 6375  
Cooling Degree Days 9 7  
Month to date cooling degree days 37 70  
Year to date cooling degree days 124 131  
Since 1 June cooling degree days 37 70  
Growing Degree Days 23 (Base 50)    
Moisture  
Dew Point 58 °F    
Average Humidity 62    
Maximum Humidity 87    
Minimum Humidity 37    
Precipitation  
Precipitation 0.00 in 0.15 in 3.04 in (2000)
Month to date precipitation 0.24 1.93  
Year to date precipitation 21.48 14.02  
Sea Level Pressure  
Sea Level Pressure 29.95 in    
Wind  
Wind Speed 8 mph (North)    
Max Wind Speed 22 mph    
Max Gust Speed 29 mph    
Visibility 10 miles    
Events      
T = Trace of Precipitation, MM = Missing Value Source: NWS Daily Summary

Daily Weather History Graph

Daily Weather History Graph

Search for Another Location

Airport or City:

Astronomy

Jun. 13, 2013 Rise Set
Actual Time 5:31 AM CDT 8:41 PM CDT
Civil Twilight 4:57 AM CDT 9:15 PM CDT
Nautical Twilight 4:13 AM CDT 9:59 PM CDT
Astronomical Twilight 3:21 AM CDT 10:51 PM CDT
Moon 10:11 AM CDT (6/13) 11:44 PM CDT (6/13)
Length of Visible Light 16h 18m
Length of Day
15h 10m
Waxing Crescent, 22% of the Moon is Illuminated
Jun 13
Waxing Crescent
Jun 16
First Quarter
Jun 23
Full
Jun 29
Last Quarter
Jul 8
New

Hourly Weather History & Observations

Time (CDT) Temp. Heat Index Dew Point Humidity Pressure Visibility Wind Dir Wind Speed Gust Speed Precip Events Conditions
12:52 AM 68.0 °F - 64.0 °F 87% 29.74 in 10.0 mi NW 8.1 mph - N/A   Overcast
1:52 AM 71.1 °F - 64.9 °F 81% 29.79 in 10.0 mi North 15.0 mph 26.5 mph N/A   Overcast
2:52 AM 69.1 °F - 62.1 °F 78% 29.82 in 10.0 mi North 18.4 mph 28.8 mph N/A   Mostly Cloudy
3:10 AM 68.0 °F - 62.6 °F 83% 29.84 in 10.0 mi North 16.1 mph 25.3 mph N/A   Scattered Clouds
3:52 AM 68.0 °F - 62.1 °F 81% 29.85 in 10.0 mi NNW 11.5 mph - N/A   Mostly Cloudy
4:52 AM 66.0 °F - 61.0 °F 84% 29.88 in 10.0 mi North 10.4 mph 20.7 mph N/A   Partly Cloudy
5:52 AM 64.9 °F - 60.1 °F 84% 29.92 in 10.0 mi North 6.9 mph - N/A   Clear
6:52 AM 66.9 °F - 57.9 °F 73% 29.93 in 10.0 mi North 10.4 mph - N/A   Clear
7:52 AM 69.1 °F - 59.0 °F 70% 29.97 in 10.0 mi NNW 8.1 mph - N/A   Clear
8:52 AM 71.1 °F - 60.1 °F 68% 29.99 in 10.0 mi NNW 11.5 mph - N/A   Clear
9:52 AM 73.9 °F - 59.0 °F 59% 30.01 in 10.0 mi NNE 9.2 mph - N/A   Clear
10:52 AM 77.0 °F - 59.0 °F 54% 30.01 in 10.0 mi North 5.8 mph - N/A   Clear
11:52 AM 79.0 °F - 57.0 °F 47% 30.01 in 10.0 mi NNE 6.9 mph - N/A   Clear
12:52 PM 80.1 °F 80.6 °F 57.9 °F 47% 30.01 in 10.0 mi NNE 6.9 mph - N/A   Clear
1:52 PM 81.0 °F 81.1 °F 57.9 °F 45% 30.01 in 10.0 mi NNE 9.2 mph - N/A   Mostly Cloudy
2:52 PM 82.0 °F 81.7 °F 57.0 °F 42% 30.00 in 10.0 mi NNE 5.8 mph - N/A   Clear
3:52 PM 82.0 °F 81.4 °F 55.0 °F 39% 29.99 in 10.0 mi NNE 8.1 mph - N/A   Clear
4:52 PM 82.9 °F 82.0 °F 55.0 °F 38% 30.00 in 10.0 mi North 8.1 mph - N/A   Clear
5:52 PM 82.9 °F 81.9 °F 54.0 °F 37% 30.01 in 10.0 mi North 6.9 mph - N/A   Clear
6:52 PM 81.0 °F 80.8 °F 55.9 °F 42% 30.02 in 10.0 mi NNE 8.1 mph - N/A   Scattered Clouds
7:52 PM 79.0 °F - 55.0 °F 44% 30.02 in 10.0 mi North 9.2 mph - N/A   Clear
8:52 PM 73.9 °F - 55.9 °F 53% 30.00 in 10.0 mi NE 6.9 mph - N/A   Clear
9:52 PM 72.0 °F - 57.0 °F 59% 30.01 in 10.0 mi NE 6.9 mph - N/A   Clear
10:52 PM 70.0 °F - 55.9 °F 61% 30.00 in 10.0 mi NE 6.9 mph - N/A   Clear
11:52 PM 66.9 °F - 55.0 °F 66% 30.00 in 10.0 mi NE 8.1 mph - N/A   Clear